| time (UTC) | temp F | wind direction | speed MPH | gust MPH | rain 1hr in | rain 24hr in | rain mn in | humidity % | barometer mb |
| 20260904164715 | 94 | 177 | 2.0 | 3.0 | 0.00 | 0.00 | 0.00 | 56 | 1014.0 |
| 20260904164209 | 92 | 226 | 10.0 | 11.0 | 0.00 | 0.00 | 0.00 | 58 | 1013.9 |
| 20260904163706 | 93 | 197 | 5.0 | 5.0 | 0.00 | 0.00 | 0.00 | 56 | 1013.8 |
| 20260904163201 | 93 | 182 | 2.0 | 2.0 | 0.00 | 0.00 | 0.00 | 55 | 1014.0 |
| 20260904162700 | 93 | 207 | 9.0 | 13.0 | 0.00 | 0.00 | 0.00 | 59 | 1013.8 |
| 20260904162155 | 92 | 135 | 2.0 | 3.0 | 0.00 | 0.00 | 0.00 | 58 | 1014.1 |
| 20260904161651 | 91 | 173 | 2.0 | 2.0 | 0.00 | 0.00 | 0.00 | 58 | 1013.8 |
| 20260904161146 | 92 | 142 | 2.0 | 2.0 | 0.00 | 0.00 | 0.00 | 58 | 1013.7 |
| 20260904160642 | 92 | 129 | 2.0 | 3.0 | 0.00 | 0.00 | 0.00 | 58 | 1013.9 |
| 20260904160137 | 92 | 195 | 3.0 | 5.0 | 0.00 | 0.00 | 0.00 | 57 | 1014.0 |
| 20260904155632 | 91 | 197 | 4.0 | 6.0 | 0.00 | 0.00 | 0.00 | 59 | 1013.6 |
| 20260904155131 | 91 | 204 | 4.0 | 5.0 | 0.00 | 0.00 | 0.00 | 59 | 1014.0 |
| 20260904154630 | 89 | 150 | 2.0 | 2.0 | 0.00 | 0.00 | 0.00 | 62 | 1013.7 |
| 20260904154125 | 90 | 162 | 3.0 | 6.0 | 0.00 | 0.00 | 0.00 | 61 | 1013.7 |
| 20260904153620 | 89 | 155 | 3.0 | 5.0 | 0.00 | 0.00 | 0.00 | 61 | 1013.7 |
| 20260904153116 | 88 | 135 | 2.0 | 2.0 | 0.00 | 0.00 | 0.00 | 64 | 1013.9 |
| 20260904152612 | 89 | 153 | 2.0 | 2.0 | 0.00 | 0.00 | 0.00 | 62 | 1013.7 |
| 20260904152107 | 90 | 193 | 4.0 | 9.0 | 0.00 | 0.00 | 0.00 | 61 | 1013.7 |
| 20260904151602 | 90 | 175 | 2.0 | 2.0 | 0.00 | 0.00 | 0.00 | 61 | 1013.7 |
| 20260904151101 | 88 | 150 | 2.0 | 2.0 | 0.00 | 0.00 | 0.00 | 63 | 1013.8 |
| 20260904150556 | 88 | 133 | 2.0 | 3.0 | 0.00 | 0.00 | 0.00 | 63 | 1013.8 |
| 20260904150055 | 88 | 153 | 1.0 | 2.0 | 0.00 | 0.00 | 0.00 | 63 | 1014.1 |
| 20260904145555 | 87 | 189 | 2.0 | 2.0 | 0.00 | 0.00 | 0.00 | 64 | 1013.9 |
| 20260904145050 | 86 | 156 | 3.0 | 5.0 | 0.00 | 0.00 | 0.00 | 65 | 1013.9 |
| 20260904144546 | 87 | 148 | 4.0 | 6.0 | 0.00 | 0.00 | 0.00 | 66 | 1013.9 |
| 20260904144042 | 87 | 164 | 4.0 | 7.0 | 0.00 | 0.00 | 0.00 | 66 | 1014.0 |
| 20260904143537 | 86 | 149 | 1.0 | 2.0 | 0.00 | 0.00 | 0.00 | 67 | 1013.8 |
| 20260904143034 | 86 | 141 | 2.0 | 2.0 | 0.00 | 0.00 | 0.00 | 67 | 1013.9 |
| 20260904142530 | 85 | 148 | 1.0 | 2.0 | 0.00 | 0.00 | 0.00 | 69 | 1013.9 |
| 20260904142025 | 85 | 150 | 2.0 | 3.0 | 0.00 | 0.00 | 0.00 | 69 | 1013.8 |
| 20260904141520 | 85 | 173 | 4.0 | 5.0 | 0.00 | 0.00 | 0.00 | 69 | 1013.6 |
| 20260904141016 | 85 | 183 | 3.0 | 3.0 | 0.00 | 0.00 | 0.00 | 70 | 1013.9 |
| 20260904140511 | 85 | 139 | 3.0 | 7.0 | 0.00 | 0.00 | 0.00 | 70 | 1013.9 |
| 20260904140010 | 84 | 156 | 3.0 | 3.0 | 0.00 | 0.00 | 0.00 | 71 | 1013.8 |
| 20260904135504 | 84 | 203 | 5.0 | 6.0 | 0.00 | 0.00 | 0.00 | 71 | 1013.7 |
| 20260904135001 | 84 | 155 | 9.0 | 16.0 | 0.00 | 0.00 | 0.00 | 71 | 1013.7 |
| 20260904134501 | 84 | 171 | 4.0 | 6.0 | 0.00 | 0.00 | 0.00 | 72 | 1013.8 |
| 20260904133954 | 83 | 168 | 2.0 | 3.0 | 0.00 | 0.00 | 0.00 | 73 | 1013.7 |
| 20260904133449 | 83 | 185 | 1.0 | 2.0 | 0.00 | 0.00 | 0.00 | 73 | 1013.6 |
| 20260904132945 | 83 | 210 | 3.0 | 3.0 | 0.00 | 0.00 | 0.00 | 73 | 1014.0 |
| 20260904132440 | 83 | 165 | 3.0 | 5.0 | 0.00 | 0.00 | 0.00 | 74 | 1013.6 |
| 20260904131940 | 82 | 153 | 2.0 | 2.0 | 0.00 | 0.00 | 0.00 | 75 | 1013.5 |
| 20260904131435 | 82 | 153 | 1.0 | 1.0 | 0.00 | 0.00 | 0.00 | 76 | 1013.4 |
| 20260904130931 | 81 | 166 | 5.0 | 7.0 | 0.00 | 0.00 | 0.00 | 78 | 1013.6 |
| 20260904130429 | 80 | 144 | 1.0 | 2.0 | 0.00 | 0.00 | 0.00 | 79 | 1013.2 |
| 20260904125924 | 80 | 155 | 3.0 | 8.0 | 0.00 | 0.00 | 0.00 | 80 | 1013.3 |
| 20260904125421 | 79 | 189 | 3.0 | 5.0 | 0.00 | 0.00 | 0.00 | 82 | 1013.0 |
| 20260904124920 | 79 | 137 | 1.0 | 1.0 | 0.00 | 0.00 | 0.00 | 83 | 1013.0 |
| 20260904124417 | 78 | 147 | 3.0 | 7.0 | 0.00 | 0.00 | 0.00 | 83 | 1013.2 |
| 20260904123912 | 78 | 132 | 1.0 | 1.0 | 0.00 | 0.00 | 0.00 | 84 | 1013.2 |
| 20260904123412 | 78 | 129 | 0.0 | 0.0 | 0.00 | 0.00 | 0.00 | 84 | 1013.4 |
| 20260904122908 | 78 | 148 | 3.0 | 6.0 | 0.00 | 0.00 | 0.00 | 85 | 1012.9 |
| 20260904122407 | 78 | 139 | 0.0 | 1.0 | 0.00 | 0.00 | 0.00 | 85 | 1012.9 |
| 20260904121902 | 77 | 137 | 1.0 | 3.0 | 0.00 | 0.00 | 0.00 | 86 | 1013.0 |
| 20260904121359 | 77 | 135 | 1.0 | 1.0 | 0.00 | 0.00 | 0.00 | 86 | 1013.0 |
| 20260904120854 | 77 | 133 | 0.0 | 1.0 | 0.00 | 0.00 | 0.00 | 86 | 1012.8 |
| 20260904120351 | 77 | 139 | 1.0 | 1.0 | 0.00 | 0.00 | 0.00 | 87 | 1012.9 |
| 20260904115845 | 77 | 145 | 1.0 | 1.0 | 0.00 | 0.00 | 0.00 | 87 | 1012.9 |
| 20260904115341 | 77 | 149 | 1.0 | 2.0 | 0.00 | 0.00 | 0.00 | 87 | 1012.9 |
| 20260904114841 | 77 | 138 | 1.0 | 2.0 | 0.00 | 0.00 | 0.00 | 87 | 1012.7 |
| 20260904114335 | 77 | 131 | 1.0 | 1.0 | 0.00 | 0.00 | 0.00 | 87 | 1013.0 |
| 20260904113831 | 77 | 127 | 0.0 | 0.0 | 0.00 | 0.00 | 0.00 | 87 | 1012.8 |
| 20260904113330 | 77 | 129 | 0.0 | 1.0 | 0.00 | 0.00 | 0.00 | 87 | 1012.7 |
| 20260904112825 | 77 | 133 | 1.0 | 1.0 | 0.00 | 0.00 | 0.00 | 87 | 1012.5 |
| 20260904112321 | 77 | 143 | 0.0 | 1.0 | 0.00 | 0.00 | 0.00 | 87 | 1012.5 |
| 20260904111816 | 77 | 131 | 0.0 | 0.0 | 0.00 | 0.00 | 0.00 | 87 | 1012.8 |
| 20260904111312 | 77 | 124 | 0.0 | 1.0 | 0.00 | 0.00 | 0.00 | 87 | 1012.7 |
| 20260904110808 | 77 | 142 | 1.0 | 1.0 | 0.00 | 0.00 | 0.00 | 87 | 1012.5 |
| 20260904110306 | 77 | 136 | 0.0 | 0.0 | 0.00 | 0.00 | 0.00 | 87 | 1012.6 |
| 20260904105801 | 77 | 165 | 1.0 | 3.0 | 0.00 | 0.00 | 0.00 | 87 | 1012.5 |
| 20260904105256 | 77 | 156 | 2.0 | 3.0 | 0.00 | 0.00 | 0.00 | 87 | 1012.4 |
| 20260904104751 | 77 | 149 | 3.0 | 5.0 | 0.00 | 0.00 | 0.00 | 87 | 1012.4 |
| 20260904104247 | 77 | 181 | 3.0 | 3.0 | 0.00 | 0.00 | 0.00 | 87 | 1012.4 |
| 20260904103744 | 77 | 164 | 3.0 | 3.0 | 0.00 | 0.00 | 0.00 | 87 | 1012.4 |
| 20260904103237 | 77 | 133 | 3.0 | 3.0 | 0.00 | 0.00 | 0.00 | 87 | 1012.4 |
| 20260904102733 | 77 | 164 | 3.0 | 3.0 | 0.00 | 0.00 | 0.00 | 87 | 1012.7 |
| 20260904102229 | 77 | 147 | 1.0 | 2.0 | 0.00 | 0.00 | 0.00 | 87 | 1012.5 |
| 20260904101725 | 77 | 147 | 3.0 | 3.0 | 0.00 | 0.00 | 0.00 | 86 | 1012.6 |
| 20260904101221 | 77 | 104 | 2.0 | 3.0 | 0.00 | 0.00 | 0.00 | 87 | 1012.6 |
| 20260904100716 | 77 | 158 | 3.0 | 3.0 | 0.00 | 0.00 | 0.00 | 87 | 1012.4 |
| 20260904100213 | 77 | 155 | 2.0 | 2.0 | 0.00 | 0.00 | 0.00 | 86 | 1012.3 |
| 20260904095711 | 77 | 151 | 2.0 | 5.0 | 0.00 | 0.00 | 0.00 | 86 | 1012.4 |
| 20260904095206 | 77 | 151 | 3.0 | 3.0 | 0.00 | 0.00 | 0.00 | 86 | 1012.2 |
| 20260904094702 | 77 | 98 | 4.0 | 6.0 | 0.00 | 0.00 | 0.00 | 86 | 1012.2 |
| 20260904094202 | 77 | 169 | 2.0 | 2.0 | 0.00 | 0.00 | 0.00 | 86 | 1012.2 |
| 20260904093659 | 78 | 146 | 3.0 | 5.0 | 0.00 | 0.00 | 0.00 | 86 | 1012.1 |
| 20260904093158 | 78 | 139 | 1.0 | 2.0 | 0.00 | 0.00 | 0.00 | 86 | 1012.1 |
| 20260904092655 | 78 | 135 | 4.0 | 5.0 | 0.00 | 0.00 | 0.00 | 86 | 1012.0 |
| 20260904092150 | 78 | 129 | 0.0 | 0.0 | 0.00 | 0.00 | 0.00 | 86 | 1011.9 |
| 20260904091646 | 78 | 174 | 3.0 | 5.0 | 0.00 | 0.00 | 0.00 | 85 | 1012.0 |
| 20260904091146 | 78 | 147 | 3.0 | 3.0 | 0.00 | 0.00 | 0.00 | 85 | 1012.0 |
| 20260904090642 | 78 | 138 | 3.0 | 3.0 | 0.00 | 0.00 | 0.00 | 85 | 1012.3 |
| 20260904090137 | 78 | 146 | 2.0 | 5.0 | 0.00 | 0.00 | 0.00 | 85 | 1011.9 |
| 20260904085632 | 78 | 141 | 1.0 | 1.0 | 0.00 | 0.00 | 0.00 | 85 | 1012.2 |
| 20260904085131 | 78 | 132 | 1.0 | 2.0 | 0.00 | 0.00 | 0.00 | 85 | 1012.4 |
| 20260904084627 | 78 | 140 | 2.0 | 2.0 | 0.00 | 0.00 | 0.00 | 85 | 1012.2 |
| 20260904084123 | 78 | 164 | 1.0 | 2.0 | 0.00 | 0.00 | 0.00 | 85 | 1012.0 |
| 20260904083619 | 78 | 166 | 3.0 | 3.0 | 0.00 | 0.00 | 0.00 | 85 | 1012.1 |
| 20260904083115 | 78 | 147 | 2.0 | 5.0 | 0.00 | 0.00 | 0.00 | 85 | 1012.0 |
| 20260904082610 | 78 | 147 | 2.0 | 5.0 | 0.00 | 0.00 | 0.00 | 85 | 1012.0 |
| 20260904082105 | 78 | 159 | 3.0 | 3.0 | 0.00 | 0.00 | 0.00 | 84 | 1012.3 |
| 20260904081601 | 78 | 183 | 3.0 | 3.0 | 0.00 | 0.00 | 0.00 | 85 | 1012.2 |
| 20260904081055 | 78 | 129 | 1.0 | 1.0 | 0.00 | 0.00 | 0.00 | 84 | 1012.3 |
| 20260904080551 | 78 | 145 | 1.0 | 2.0 | 0.00 | 0.00 | 0.00 | 84 | 1012.1 |
| 20260904080047 | 78 | 162 | 4.0 | 5.0 | 0.00 | 0.00 | 0.00 | 84 | 1012.2 |
| 20260904075544 | 79 | 154 | 6.0 | 9.0 | 0.00 | 0.00 | 0.00 | 84 | 1012.3 |
| 20260904075043 | 79 | 160 | 4.0 | 6.0 | 0.00 | 0.00 | 0.00 | 84 | 1012.1 |
| 20260904074542 | 79 | 161 | 5.0 | 8.0 | 0.00 | 0.00 | 0.00 | 84 | 1012.1 |
| 20260904074037 | 79 | 141 | 4.0 | 6.0 | 0.00 | 0.00 | 0.00 | 83 | 1012.1 |
| 20260904073533 | 79 | 134 | 4.0 | 6.0 | 0.00 | 0.00 | 0.00 | 83 | 1012.3 |
| 20260904073029 | 79 | 184 | 6.0 | 9.0 | 0.00 | 0.00 | 0.00 | 83 | 1012.1 |
| 20260904072525 | 79 | 159 | 3.0 | 3.0 | 0.00 | 0.00 | 0.00 | 83 | 1012.4 |
| 20260904072020 | 79 | 155 | 2.0 | 2.0 | 0.00 | 0.00 | 0.00 | 83 | 1012.6 |
| 20260904071515 | 79 | 168 | 4.0 | 6.0 | 0.00 | 0.00 | 0.00 | 82 | 1012.3 |
| 20260904071010 | 79 | 164 | 3.0 | 5.0 | 0.00 | 0.00 | 0.00 | 82 | 1012.3 |
| 20260904070508 | 80 | 167 | 4.0 | 6.0 | 0.00 | 0.00 | 0.00 | 82 | 1012.3 |
| 20260904070003 | 79 | 134 | 3.0 | 5.0 | 0.00 | 0.00 | 0.00 | 82 | 1012.3 |
| 20260904065459 | 80 | 156 | 5.0 | 7.0 | 0.00 | 0.00 | 0.00 | 82 | 1012.7 |
| 20260904064954 | 80 | 176 | 5.0 | 6.0 | 0.00 | 0.00 | 0.00 | 82 | 1012.6 |
| 20260904064450 | 80 | 172 | 7.0 | 9.0 | 0.00 | 0.00 | 0.00 | 81 | 1012.4 |
| 20260904063945 | 80 | 141 | 3.0 | 5.0 | 0.00 | 0.00 | 0.00 | 81 | 1012.5 |
| 20260904063442 | 80 | 150 | 4.0 | 8.0 | 0.00 | 0.00 | 0.00 | 81 | 1012.6 |
| 20260904062936 | 80 | 163 | 4.0 | 7.0 | 0.00 | 0.00 | 0.00 | 81 | 1012.2 |
| 20260904062432 | 80 | 144 | 6.0 | 8.0 | 0.00 | 0.00 | 0.00 | 81 | 1012.2 |
| 20260904061928 | 80 | 148 | 4.0 | 6.0 | 0.00 | 0.00 | 0.00 | 81 | 1012.4 |
| 20260904061424 | 80 | 150 | 3.0 | 5.0 | 0.00 | 0.00 | 0.00 | 80 | 1012.5 |
| 20260904060920 | 80 | 154 | 5.0 | 8.0 | 0.00 | 0.00 | 0.00 | 80 | 1012.4 |
| 20260904060416 | 80 | 149 | 2.0 | 3.0 | 0.00 | 0.00 | 0.00 | 79 | 1012.3 |
| 20260904055911 | 80 | 147 | 2.0 | 3.0 | 0.00 | 0.00 | 0.00 | 79 | 1012.5 |
| 20260904055407 | 80 | 129 | 3.0 | 3.0 | 0.00 | 0.00 | 0.00 | 79 | 1012.2 |
| 20260904054902 | 80 | 143 | 2.0 | 2.0 | 0.00 | 0.00 | 0.00 | 78 | 1012.3 |
| 20260904054358 | 81 | 126 | 1.0 | 1.0 | 0.00 | 0.00 | 0.00 | 78 | 1012.2 |
| 20260904053853 | 81 | 129 | 5.0 | 6.0 | 0.00 | 0.00 | 0.00 | 78 | 1012.3 |
| 20260904053352 | 81 | 154 | 3.0 | 3.0 | 0.00 | 0.00 | 0.00 | 78 | 1012.4 |
| 20260904052848 | 81 | 186 | 3.0 | 6.0 | 0.00 | 0.00 | 0.00 | 78 | 1012.1 |
| 20260904052345 | 81 | 143 | 3.0 | 3.0 | 0.00 | 0.00 | 0.00 | 78 | 1012.2 |
| 20260904051841 | 81 | 158 | 3.0 | 3.0 | 0.00 | 0.00 | 0.00 | 78 | 1012.2 |
| 20260904051336 | 81 | 153 | 2.0 | 2.0 | 0.00 | 0.00 | 0.00 | 77 | 1012.2 |
| 20260904050831 | 81 | 134 | 3.0 | 3.0 | 0.00 | 0.00 | 0.00 | 77 | 1012.4 |
| 20260904050328 | 81 | 149 | 2.0 | 2.0 | 0.00 | 0.00 | 0.00 | 76 | 1012.2 |
| 20260904045827 | 82 | 154 | 3.0 | 3.0 | 0.00 | 0.00 | 0.00 | 76 | 1012.2 |
| 20260904045323 | 82 | 123 | 3.0 | 5.0 | 0.00 | 0.00 | 0.00 | 75 | 1012.3 |
| 20260904044823 | 82 | 133 | 1.0 | 1.0 | 0.00 | 0.00 | 0.00 | 75 | 1012.1 |
| 20260904044320 | 82 | 155 | 4.0 | 6.0 | 0.00 | 0.00 | 0.00 | 74 | 1012.2 |
| 20260904043815 | 82 | 137 | 3.0 | 3.0 | 0.00 | 0.00 | 0.00 | 74 | 1012.2 |
| 20260904043312 | 82 | 172 | 3.0 | 3.0 | 0.00 | 0.00 | 0.00 | 73 | 1012.2 |
| 20260904042806 | 82 | 139 | 1.0 | 2.0 | 0.00 | 0.00 | 0.00 | 73 | 1012.2 |
| 20260904042306 | 83 | 120 | 2.0 | 3.0 | 0.00 | 0.00 | 0.00 | 73 | 1012.2 |
| 20260904041802 | 83 | 157 | 2.0 | 2.0 | 0.00 | 0.00 | 0.00 | 73 | 1012.4 |
| 20260904041259 | 83 | 117 | 5.0 | 7.0 | 0.00 | 0.00 | 0.00 | 72 | 1012.2 |
| 20260904040754 | 83 | 151 | 3.0 | 5.0 | 0.00 | 0.00 | 0.00 | 72 | 1012.1 |
| 20260904040249 | 83 | 154 | 4.0 | 6.0 | 0.00 | 0.00 | 0.00 | 71 | 1012.5 |
| 20260904035746 | 83 | 156 | 5.0 | 8.0 | 0.00 | 0.00 | 0.00 | 71 | 1012.2 |
| 20260904035241 | 84 | 128 | 1.0 | 2.0 | 0.00 | 0.00 | 0.00 | 70 | 1012.2 |
| 20260904034739 | 84 | 96 | 7.0 | 9.0 | 0.00 | 0.00 | 0.00 | 70 | 1012.3 |
| 20260904034236 | 84 | 157 | 3.0 | 3.0 | 0.00 | 0.00 | 0.00 | 70 | 1012.1 |
| 20260904033731 | 84 | 120 | 2.0 | 3.0 | 0.00 | 0.00 | 0.00 | 69 | 1012.3 |
| 20260904033228 | 84 | 159 | 4.0 | 5.0 | 0.00 | 0.00 | 0.00 | 69 | 1012.3 |
| 20260904032724 | 84 | 144 | 5.0 | 6.0 | 0.00 | 0.00 | 0.00 | 68 | 1012.3 |
| 20260904032222 | 84 | 155 | 3.0 | 6.0 | 0.00 | 0.00 | 0.00 | 68 | 1011.8 |
| 20260904031717 | 85 | 173 | 3.0 | 3.0 | 0.00 | 0.00 | 0.00 | 68 | 1012.1 |
| 20260904031213 | 85 | 120 | 3.0 | 6.0 | 0.00 | 0.00 | 0.00 | 67 | 1012.0 |
| 20260904030708 | 85 | 153 | 2.0 | 2.0 | 0.00 | 0.00 | 0.00 | 67 | 1011.7 |
| 20260904030203 | 85 | 141 | 3.0 | 3.0 | 0.00 | 0.00 | 0.00 | 67 | 1011.6 |
| 20260904025700 | 86 | 152 | 3.0 | 3.0 | 0.00 | 0.00 | 0.00 | 67 | 1011.6 |
| 20260904025155 | 86 | 151 | 7.0 | 9.0 | 0.00 | 0.00 | 0.00 | 67 | 1011.6 |
| 20260904024650 | 86 | 169 | 5.0 | 6.0 | 0.00 | 0.00 | 0.00 | 67 | 1011.5 |
| 20260904024146 | 86 | 134 | 7.0 | 9.0 | 0.00 | 0.00 | 0.00 | 67 | 1011.3 |
| 20260904023642 | 86 | 156 | 3.0 | 3.0 | 0.00 | 0.00 | 0.00 | 67 | 1011.2 |
| 20260904023137 | 86 | 158 | 2.0 | 2.0 | 0.00 | 0.00 | 0.00 | 68 | 1011.3 |
| 20260904022637 | 86 | 98 | 3.0 | 3.0 | 0.00 | 0.00 | 0.00 | 68 | 1010.8 |
| 20260904022134 | 87 | 145 | 4.0 | 6.0 | 0.00 | 0.00 | 0.00 | 68 | 1011.0 |
| 20260904021630 | 87 | 135 | 3.0 | 3.0 | 0.00 | 0.00 | 0.00 | 68 | 1010.9 |
| 20260904021125 | 87 | 149 | 5.0 | 8.0 | 0.00 | 0.00 | 0.00 | 67 | 1010.8 |
| 20260904020620 | 87 | 170 | 6.0 | 9.0 | 0.00 | 0.00 | 0.00 | 68 | 1010.7 |
| 20260904020109 | 87 | 97 | 4.0 | 8.0 | 0.00 | 0.00 | 0.00 | 67 | 1010.7 |
| 20260904015603 | 87 | 144 | 3.0 | 3.0 | 0.00 | 0.00 | 0.00 | 67 | 1010.5 |
| 20260904015102 | 88 | 165 | 5.0 | 7.0 | 0.00 | 0.00 | 0.00 | 67 | 1010.6 |
| 20260904014602 | 88 | 170 | 7.0 | 10.0 | 0.00 | 0.00 | 0.00 | 66 | 1010.4 |
| 20260904014057 | 88 | 196 | 5.0 | 7.0 | 0.00 | 0.00 | 0.00 | 66 | 1010.4 |
| 20260904013554 | 88 | 119 | 3.0 | 3.0 | 0.00 | 0.00 | 0.00 | 66 | 1010.4 |
| 20260904013050 | 89 | 168 | 5.0 | 7.0 | 0.00 | 0.00 | 0.00 | 66 | 1010.4 |
| 20260904012550 | 89 | 158 | 3.0 | 5.0 | 0.00 | 0.00 | 0.00 | 66 | 1010.5 |
| 20260904012044 | 89 | 110 | 3.0 | 3.0 | 0.00 | 0.00 | 0.00 | 65 | 1010.3 |
| 20260904011543 | 89 | 159 | 4.0 | 7.0 | 0.00 | 0.00 | 0.00 | 65 | 1010.0 |
| 20260904011039 | 89 | 129 | 3.0 | 3.0 | 0.00 | 0.00 | 0.00 | 65 | 1010.1 |
| 20260904010535 | 90 | 143 | 2.0 | 3.0 | 0.00 | 0.00 | 0.00 | 64 | 1010.1 |
| 20260904010031 | 90 | 149 | 2.0 | 2.0 | 0.00 | 0.00 | 0.00 | 64 | 1010.1 |
| 20260904005531 | 90 | 172 | 4.0 | 7.0 | 0.00 | 0.00 | 0.00 | 64 | 1010.0 |
| 20260904005027 | 91 | 149 | 3.0 | 6.0 | 0.00 | 0.00 | 0.00 | 63 | 1009.8 |
| 20260904004522 | 91 | 163 | 5.0 | 10.0 | 0.00 | 0.00 | 0.00 | 62 | 1010.0 |
| 20260904004022 | 92 | 180 | 5.0 | 7.0 | 0.00 | 0.00 | 0.00 | 61 | 1009.5 |
| 20260904003518 | 92 | 155 | 3.0 | 3.0 | 0.00 | 0.00 | 0.00 | 60 | 1009.8 |
| 20260904003014 | 93 | 160 | 4.0 | 6.0 | 0.00 | 0.00 | 0.00 | 60 | 1009.5 |
| 20260904002510 | 93 | 161 | 6.0 | 8.0 | 0.00 | 0.00 | 0.00 | 59 | 1009.9 |
| 20260904002009 | 94 | 151 | 3.0 | 5.0 | 0.00 | 0.00 | 0.00 | 58 | 1009.6 |
| 20260904001505 | 95 | 184 | 4.0 | 5.0 | 0.00 | 0.00 | 0.00 | 56 | 1009.5 |
| 20260904001004 | 95 | 122 | 1.0 | 2.0 | 0.00 | 0.00 | 0.00 | 56 | 1009.4 |
| 20260904000504 | 95 | 151 | 5.0 | 6.0 | 0.00 | 0.00 | 0.00 | 56 | 1009.4 |
| 20260903235959 | 96 | 154 | 3.0 | 3.0 | 0.00 | 0.00 | 0.00 | 56 | 1009.3 |
| 20260903235455 | 96 | 184 | 3.0 | 5.0 | 0.00 | 0.00 | 0.00 | 54 | 1009.4 |
| 20260903234955 | 97 | 145 | 3.0 | 3.0 | 0.00 | 0.00 | 0.00 | 54 | 1009.5 |
| 20260903234450 | 97 | 145 | 4.0 | 7.0 | 0.00 | 0.00 | 0.00 | 53 | 1009.3 |
| 20260903233947 | 97 | 69 | 2.0 | 3.0 | 0.00 | 0.00 | 0.00 | 53 | 1009.4 |
| 20260903233442 | 98 | 150 | 4.0 | 7.0 | 0.00 | 0.00 | 0.00 | 53 | 1009.4 |
| 20260903232937 | 98 | 168 | 4.0 | 5.0 | 0.00 | 0.00 | 0.00 | 52 | 1009.3 |
| 20260903232433 | 99 | 172 | 5.0 | 7.0 | 0.00 | 0.00 | 0.00 | 51 | 1009.3 |
| 20260903231932 | 99 | 182 | 3.0 | 5.0 | 0.00 | 0.00 | 0.00 | 51 | 1009.1 |
| 20260903231427 | 100 | 138 | 6.0 | 9.0 | 0.00 | 0.00 | 0.00 | 49 | 1008.9 |
| 20260903230922 | 100 | 187 | 4.0 | 6.0 | 0.00 | 0.00 | 0.00 | 48 | 1008.9 |
| 20260903230417 | 100 | 147 | 3.0 | 6.0 | 0.00 | 0.00 | 0.00 | 47 | 1008.9 |
| 20260903225914 | 101 | 173 | 3.0 | 6.0 | 0.00 | 0.00 | 0.00 | 46 | 1008.8 |
| 20260903225409 | 101 | 144 | 4.0 | 5.0 | 0.00 | 0.00 | 0.00 | 46 | 1008.9 |
| 20260903224900 | 101 | 188 | 6.0 | 7.0 | 0.00 | 0.00 | 0.00 | 45 | 1008.7 |
| 20260903224356 | 101 | 153 | 5.0 | 9.0 | 0.00 | 0.00 | 0.00 | 45 | 1008.6 |
| 20260903223852 | 101 | 135 | 2.0 | 5.0 | 0.00 | 0.00 | 0.00 | 45 | 1009.0 |
| 20260903223350 | 101 | 184 | 2.0 | 3.0 | 0.00 | 0.00 | 0.00 | 45 | 1008.8 |
| 20260903222845 | 102 | 145 | 3.0 | 3.0 | 0.00 | 0.00 | 0.00 | 43 | 1008.8 |
| 20260903222345 | 101 | 166 | 3.0 | 5.0 | 0.00 | 0.00 | 0.00 | 43 | 1008.7 |
| 20260903221839 | 103 | 132 | 3.0 | 3.0 | 0.00 | 0.00 | 0.00 | 42 | 1008.6 |
| 20260903221338 | 102 | 164 | 3.0 | 3.0 | 0.00 | 0.00 | 0.00 | 42 | 1008.7 |
| 20260903220836 | 100 | 133 | 1.0 | 1.0 | 0.00 | 0.00 | 0.00 | 43 | 1008.8 |
| 20260903220331 | 102 | 118 | 1.0 | 1.0 | 0.00 | 0.00 | 0.00 | 42 | 1009.0 |
| 20260903215828 | 105 | 144 | 2.0 | 5.0 | 0.00 | 0.00 | 0.00 | 39 | 1008.9 |
| 20260903215325 | 104 | 93 | 1.0 | 1.0 | 0.00 | 0.00 | 0.00 | 40 | 1009.1 |
| 20260903214823 | 103 | 93 | 0.0 | 1.0 | 0.00 | 0.00 | 0.00 | 39 | 1009.1 |
| 20260903214320 | 104 | 171 | 2.0 | 3.0 | 0.00 | 0.00 | 0.00 | 39 | 1009.0 |
| 20260903213814 | 104 | 199 | 2.0 | 3.0 | 0.00 | 0.00 | 0.00 | 38 | 1009.0 |
| 20260903213309 | 103 | 129 | 0.0 | 1.0 | 0.00 | 0.00 | 0.00 | 40 | 1009.1 |
| 20260903212805 | 102 | 118 | 1.0 | 2.0 | 0.00 | 0.00 | 0.00 | 41 | 1009.3 |
| 20260903212306 | 102 | 205 | 5.0 | 6.0 | 0.00 | 0.00 | 0.00 | 40 | 1009.2 |
| 20260903211800 | 103 | 227 | 9.0 | 10.0 | 0.00 | 0.00 | 0.00 | 40 | 1009.1 |
| 20260903211257 | 103 | 162 | 2.0 | 2.0 | 0.00 | 0.00 | 0.00 | 40 | 1009.3 |
| 20260903210753 | 103 | 158 | 1.0 | 1.0 | 0.00 | 0.00 | 0.00 | 40 | 1009.3 |
| 20260903210248 | 103 | 154 | 1.0 | 1.0 | 0.00 | 0.00 | 0.00 | 40 | 1009.6 |
| 20260903205747 | 102 | 208 | 3.0 | 5.0 | 0.00 | 0.00 | 0.00 | 38 | 1009.4 |
| 20260903205247 | 102 | 220 | 6.0 | 7.0 | 0.00 | 0.00 | 0.00 | 41 | 1009.4 |
| 20260903204743 | 100 | 218 | 7.0 | 8.0 | 0.00 | 0.00 | 0.00 | 42 | 1009.6 |
| 20260903204239 | 102 | 191 | 5.0 | 6.0 | 0.00 | 0.00 | 0.00 | 42 | 1009.6 |
| 20260903203734 | 102 | 207 | 6.0 | 8.0 | 0.00 | 0.00 | 0.00 | 42 | 1009.8 |
| 20260903203230 | 102 | 204 | 6.0 | 8.0 | 0.00 | 0.00 | 0.00 | 43 | 1009.8 |
| 20260903202723 | 102 | 223 | 2.0 | 5.0 | 0.00 | 0.00 | 0.00 | 43 | 1009.9 |
| 20260903202220 | 102 | 149 | 2.0 | 3.0 | 0.00 | 0.00 | 0.00 | 41 | 1009.9 |
| 20260903201719 | 104 | 196 | 3.0 | 3.0 | 0.00 | 0.00 | 0.00 | 40 | 1010.1 |
| 20260903201215 | 103 | 136 | 1.0 | 1.0 | 0.00 | 0.00 | 0.00 | 41 | 1010.2 |
| 20260903200708 | 102 | 125 | 1.0 | 2.0 | 0.00 | 0.00 | 0.00 | 42 | 1010.3 |
| 20260903200204 | 100 | 216 | 2.0 | 2.0 | 0.00 | 0.00 | 0.00 | 41 | 1010.3 |
| 20260903195659 | 100 | 323 | 4.0 | 5.0 | 0.00 | 0.00 | 0.00 | 41 | 1010.3 |
| 20260903195155 | 100 | 186 | 2.0 | 2.0 | 0.00 | 0.00 | 0.00 | 40 | 1010.4 |
| 20260903194655 | 100 | 229 | 4.0 | 5.0 | 0.00 | 0.00 | 0.00 | 41 | 1010.5 |
| 20260903194150 | 98 | 336 | 5.0 | 6.0 | 0.00 | 0.00 | 0.00 | 42 | 1010.6 |
| 20260903193645 | 98 | 254 | 6.0 | 7.0 | 0.00 | 0.00 | 0.00 | 43 | 1010.4 |
| 20260903193140 | 99 | 309 | 4.0 | 5.0 | 0.00 | 0.00 | 0.00 | 44 | 1010.6 |
| 20260903192637 | 98 | 309 | 5.0 | 6.0 | 0.00 | 0.00 | 0.00 | 43 | 1010.9 |
| 20260903192132 | 98 | 312 | 6.0 | 6.0 | 0.00 | 0.00 | 0.00 | 43 | 1010.7 |
| 20260903191628 | 99 | 332 | 3.0 | 3.0 | 0.00 | 0.00 | 0.00 | 45 | 1011.0 |
| 20260903191128 | 99 | 303 | 4.0 | 6.0 | 0.00 | 0.00 | 0.00 | 43 | 1011.0 |
| 20260903190627 | 99 | 309 | 4.0 | 5.0 | 0.00 | 0.00 | 0.00 | 43 | 1011.1 |
| 20260903190122 | 98 | 319 | 5.0 | 6.0 | 0.00 | 0.00 | 0.00 | 43 | 1011.2 |
| 20260903185617 | 97 | 20 | 2.0 | 3.0 | 0.00 | 0.00 | 0.00 | 45 | 1011.3 |
| 20260903185112 | 98 | 336 | 5.0 | 6.0 | 0.00 | 0.00 | 0.00 | 45 | 1011.4 |
| 20260903184609 | 97 | 333 | 3.0 | 3.0 | 0.00 | 0.00 | 0.00 | 46 | 1011.4 |
| 20260903184109 | 98 | 298 | 6.0 | 6.0 | 0.00 | 0.00 | 0.00 | 45 | 1011.5 |
| 20260903183608 | 97 | 192 | 2.0 | 2.0 | 0.00 | 0.00 | 0.00 | 46 | 1011.5 |
| 20260903183103 | 97 | 304 | 5.0 | 6.0 | 0.00 | 0.00 | 0.00 | 47 | 1011.7 |
| 20260903182601 | 96 | 310 | 3.0 | 3.0 | 0.00 | 0.00 | 0.00 | 48 | 1011.8 |
| 20260903182058 | 96 | 334 | 4.0 | 5.0 | 0.00 | 0.00 | 0.00 | 49 | 1011.7 |
| 20260903181556 | 95 | 318 | 4.0 | 6.0 | 0.00 | 0.00 | 0.00 | 50 | 1012.1 |
| 20260903181051 | 96 | 285 | 6.0 | 7.0 | 0.00 | 0.00 | 0.00 | 51 | 1012.0 |
| 20260903180546 | 95 | 297 | 4.0 | 5.0 | 0.00 | 0.00 | 0.00 | 51 | 1011.9 |
| 20260903180042 | 96 | 290 | 7.0 | 8.0 | 0.00 | 0.00 | 0.00 | 50 | 1012.0 |
| 20260903175540 | 96 | 16 | 4.0 | 5.0 | 0.00 | 0.00 | 0.00 | 49 | 1012.3 |
| 20260903175039 | 95 | 152 | 0.0 | 1.0 | 0.00 | 0.00 | 0.00 | 49 | 1012.3 |
| 20260903174535 | 92 | 332 | 5.0 | 6.0 | 0.00 | 0.00 | 0.00 | 54 | 1012.2 |
| 20260903174029 | 96 | 246 | 2.0 | 2.0 | 0.00 | 0.00 | 0.00 | 51 | 1012.2 |
| 20260903173524 | 95 | 314 | 2.0 | 2.0 | 0.00 | 0.00 | 0.00 | 51 | 1012.4 |
| 20260903173021 | 94 | 282 | 4.0 | 5.0 | 0.00 | 0.00 | 0.00 | 52 | 1012.3 |
| 20260903172514 | 93 | 324 | 4.0 | 5.0 | 0.00 | 0.00 | 0.00 | 55 | 1012.4 |
| 20260903172010 | 92 | 244 | 4.0 | 7.0 | 0.00 | 0.00 | 0.00 | 55 | 1012.6 |
| 20260903171505 | 93 | 287 | 7.0 | 7.0 | 0.00 | 0.00 | 0.00 | 55 | 1012.6 |
| 20260903171000 | 93 | 324 | 5.0 | 6.0 | 0.00 | 0.00 | 0.00 | 57 | 1012.8 |
| 20260903170454 | 93 | 287 | 4.0 | 5.0 | 0.00 | 0.00 | 0.00 | 54 | 1012.7 |
| 20260903165954 | 93 | 1 | 1.0 | 2.0 | 0.00 | 0.00 | 0.00 | 55 | 1012.9 |
| 20260903165447 | 92 | 51 | 2.0 | 2.0 | 0.00 | 0.00 | 0.00 | 56 | 1012.8 |
| 20260903164943 | 90 | 292 | 3.0 | 3.0 | 0.00 | 0.00 | 0.00 | 58 | 1012.6 |